Location: Ebersheim
(48.3033°N, 7.4991°E)
Time: 17:50:28
(UTC+00:00)

STARLINK-39 - Pass Details

Date: 27 February 2020
Orbit: 529 x 530 km, 53.0° (Epoch: 29 March)

Event Time Altitude Azimuth Distance (km) Brightness Sun altitude
Rises 19:07:39 0° 288° (WNW) 2,669 8.7 -20.3°
Reaches altitude 10° 19:09:56 10° 295° (WNW) 1,778 7.3 -20.6°
Maximum altitude 19:13:49 44° 8° (N) 736 4.2 -21.3°
Enters shadow 19:14:12 43° 26° (NNE) 753 4.1 -21.3°
